User: anonymous   Login
Location: ????????
(54.9045°N, 39.1041°E)
Time: 20:59:44
(UTC+00:00)
Language:

Cosmos 1470 Rocket - Orbit

View from above orbital plane
View from above orbital plane
View from above satellite
View from above satellite

Ground track
Ground track

The orbit data is extracted from the following two-line orbital elements,

1 14148U 83061B   24170.62066020  .00000563  00000-0  63787-4 0  9991
2 14148  82.5189  32.3734 0021260 172.7023 187.4507 14.84497134193020
Epoch (UTC): 18 June 2024 14:53:45
Eccentricity: 0.0021260
inclination: 82.5189°
perigee height: 600 km
apogee height: 630 km
right ascension of ascending node: 32.3734°
argument of perigee: 172.7023°
revolutions per day: 14.84497134
mean anomaly at epoch: 187.4507°
orbit number at epoch: 19302

The dashed part of the orbit path shows where the satellite is in the earth's shadow,  

DLR